Погода в Хасыне

Россия / Магаданская область     60°05′14″N   150°53′33″E
темп.,
°C
ветер,
м/с
пор.,
м/с
влажн.,
%
обл.,
%
осадки,
мм/ч
давл.,
гПа
погр.,
м
21 января, чт
чт2123:00−25ссв33600 0.0 101322
02:00−25ссв33540 0.0 101321
05:00−25ссв22490 0.0 101220
08:00−25св22480 0.0 101220
11:00−24св225138 0.0 101220
14:00−22св115588 0.0 101220
17:00−24св225393 0.0 101220
20:00−25св124985 0.0 101320
22 января, пт
пт2223:00−25св225087 0.0 101320
02:00−25св124986 0.0 101320
05:00−25св124878 0.0 101320
08:00−25св224752 0.0 101220
11:00−24св224856 0.0 101220
14:00−21ссв125448 0.0 101120
17:00−24ссв224953 0.0 101120
20:00−24ссв224849 0.0 101220
23 января, сб
сб2323:00−24ссв224940 0.0 101120
02:00−25ссв335452 0.0 101121
05:00−25ссв336249 0.0 101121
08:00−26ссв337125 0.0 101221
11:00−26ссв337414 0.0 101225
14:00−24ссв23790 0.0 101247
17:00−28ссв33710 0.0 101421
20:00−29ссв336946 0.0 101622
24 января, вс
вс2423:00−29ссв337569 0.0 101722
02:00−29ссв337699 0.0 101822
05:00−30ссв337589 0.0 101922
08:00−29ссв337491 0.0 102022
11:00−28ссв337487 0.0 102127
14:00−26ссв2378100 0.0 102295
17:00−27ссв3375100 0.0 102324
20:00−28ссв3374100 0.0 102528
25 января, пн
пн2523:00−28ссв3378100 0.0 102644
02:00−29ссв3379100 0.0 102742
05:00−29ссв3377100 0.0 102732
08:00−31ссв337491 0.0 102821
11:00−30ссв337474 0.0 102924
14:00−28ссв337828 0.0 102892
17:00−31ссв337314 0.0 102920
20:00−31ссв33715 0.0 103121